Weather History for Huntingburg, IN

Change the Weather History Date:

Sunday, April 28, 2013

  Actual Average Record
Temperature  
Mean Temperature 58 °F -  
Max Temperature 60 °F 67 °F 80 °F (2012)
Min Temperature 55 °F 48 °F 39 °F (2004)
Degree Days  
Heating Degree Days 8    
Growing Degree Days 8 (Base 50)    
Moisture  
Dew Point 53 °F    
Average Humidity 87    
Maximum Humidity 94    
Minimum Humidity 77    
Precipitation  
Precipitation 0.27 in - - ()
Sea Level Pressure  
Sea Level Pressure 29.91 in    
Wind  
Wind Speed 8 mph (SW)    
Max Wind Speed 16 mph    
Max Gust Speed 21 mph    
Visibility 9 miles    
Events      
Averages and records for this station are not official NWS values.
T = Trace of Precipitation, MM = Missing Value Source: NWS Daily Summary

Daily Weather History Graph

Daily Weather History Graph

Search for Another Location

Airport:

Trip Planner

Search our weather history database for the weather conditions in past years. The results will help you decide how hot, cold, wet, or windy it might be!

Date:

Astronomy

Apr. 28, 2013 Rise Set
Actual Time 6:54 AM EDT 8:36 PM EDT
Civil Twilight 6:26 AM EDT 9:04 PM EDT
Nautical Twilight 5:52 AM EDT 9:39 PM EDT
Astronomical Twilight 5:15 AM EDT 10:15 PM EDT
Moon No Moon Rise 9:12 AM EDT (4/28)
Length of Visible Light 14h 38m
Length of Day
13h 42m
Waning Gibbous, 89% of the Moon is Illuminated
Apr 28
Waning Gibbous
May 2
Last Quarter
May 9
New
May 18
First Quarter
May 25
Full

Hourly Weather History & Observations

Time (EDT) Temp. Dew Point Humidity Pressure Visibility Wind Dir Wind Speed Gust Speed Precip Events Conditions
12:15 AM 55.4 °F 51.8 °F 88% 29.95 in 10.0 mi East 8.1 mph - N/A   Overcast
12:35 AM 55.4 °F 51.8 °F 88% 29.95 in 10.0 mi East 8.1 mph - N/A   Overcast
12:55 AM 55.4 °F 51.8 °F 88% 29.94 in 10.0 mi East 6.9 mph - N/A   Overcast
1:15 AM 55.4 °F 51.8 °F 88% 29.93 in 10.0 mi East 5.8 mph - N/A   Overcast
1:35 AM 55.4 °F 51.8 °F 88% 29.93 in 10.0 mi East 5.8 mph - N/A   Overcast
1:55 AM 55.4 °F 51.8 °F 88% 29.92 in 10.0 mi ESE 5.8 mph - N/A   Overcast
2:15 AM 55.4 °F 51.8 °F 88% 29.91 in 10.0 mi East 8.1 mph - N/A   Overcast
2:35 AM 55.4 °F 51.8 °F 88% 29.92 in 10.0 mi SSE 4.6 mph - N/A   Overcast
2:55 AM 55.4 °F 51.8 °F 88% 29.92 in 10.0 mi SE 4.6 mph - N/A   Overcast
3:15 AM 55.4 °F 51.8 °F 88% 29.90 in 10.0 mi ESE 8.1 mph - N/A   Overcast
3:35 AM 55.4 °F 51.8 °F 88% 29.90 in 10.0 mi ESE 8.1 mph - N/A   Overcast
3:55 AM 55.4 °F 51.8 °F 88% 29.90 in 9.0 mi SE 5.8 mph - N/A   Overcast
4:15 AM 55.4 °F 51.8 °F 88% 29.88 in 10.0 mi ESE 6.9 mph - N/A   Overcast
4:35 AM 55.4 °F 51.8 °F 88% 29.88 in 10.0 mi SE 6.9 mph - N/A   Overcast
4:55 AM 55.4 °F 51.8 °F 88% 29.87 in 10.0 mi SE 10.4 mph - N/A   Overcast
5:15 AM 55.4 °F 53.6 °F 94% 29.87 in 10.0 mi SSE 5.8 mph - N/A   Overcast
5:35 AM 55.4 °F 53.6 °F 94% 29.88 in 10.0 mi South 8.1 mph - N/A   Overcast
5:55 AM 55.4 °F 53.6 °F 94% 29.88 in 7.0 mi SSE 5.8 mph - 0.01 in   Overcast
6:15 AM 55.4 °F 53.6 °F 94% 29.88 in 9.0 mi South 3.5 mph - 0.11 in   Overcast
6:35 AM 55.4 °F 53.6 °F 94% 29.87 in 10.0 mi South 6.9 mph - 0.14 in   Overcast
6:55 AM 57.2 °F 53.6 °F 88% 29.87 in 7.0 mi SSW 5.8 mph - 0.15 in   Overcast
7:15 AM 57.2 °F 53.6 °F 88% 29.88 in 7.0 mi SSW 5.8 mph - 0.03 in   Overcast
7:35 AM 57.2 °F 55.4 °F 94% 29.88 in 10.0 mi South 9.2 mph - 0.03 in   Overcast
7:55 AM 57.2 °F 55.4 °F 94% 29.89 in 6.0 mi SSW 6.9 mph - 0.07 in   Overcast
8:15 AM 57.2 °F 55.4 °F 94% 29.89 in 3.0 mi SSW 8.1 mph - 0.02 in   Overcast
8:35 AM 57.2 °F 53.6 °F 88% 29.89 in 2.5 mi SSW 6.9 mph - 0.03 in   Overcast
9:15 AM 57.2 °F 55.4 °F 94% 29.89 in 3.0 mi SW 9.2 mph - 0.01 in   Overcast
9:35 AM 57.2 °F 55.4 °F 94% 29.90 in 8.0 mi WSW 8.1 mph - 0.01 in   Overcast
9:55 AM 57.2 °F 55.4 °F 94% 29.90 in 10.0 mi WSW 9.2 mph - 0.01 in   Overcast
10:15 AM 57.2 °F 53.6 °F 88% 29.90 in 10.0 mi West 11.5 mph - N/A   Overcast
10:35 AM 57.2 °F 53.6 °F 88% 29.91 in 10.0 mi WSW 9.2 mph - N/A   Overcast
10:55 AM 57.2 °F 53.6 °F 88% 29.91 in 10.0 mi WSW 9.2 mph - N/A   Overcast
11:15 AM 57.2 °F 53.6 °F 88% 29.92 in 10.0 mi SW 15.0 mph 18.4 mph N/A   Overcast
11:35 AM 57.2 °F 51.8 °F 82% 29.92 in 10.0 mi SW 12.7 mph - N/A   Overcast
11:55 AM 57.2 °F 51.8 °F 82% 29.92 in 10.0 mi WSW 11.5 mph - N/A   Overcast
12:15 PM 57.2 °F 51.8 °F 82% 29.92 in 10.0 mi WSW 10.4 mph - N/A   Overcast
12:35 PM 57.2 °F 53.6 °F 88% 29.92 in 10.0 mi SW 9.2 mph - N/A   Overcast
12:55 PM 59.0 °F 53.6 °F 82% 29.92 in 10.0 mi SW 8.1 mph - N/A   Overcast
1:15 PM 59.0 °F 51.8 °F 77% 29.92 in 10.0 mi WSW 8.1 mph - N/A   Overcast
1:35 PM 59.0 °F 51.8 °F 77% 29.91 in 10.0 mi WSW 8.1 mph - N/A   Overcast
1:55 PM 59.0 °F 51.8 °F 77% 29.91 in 10.0 mi SSW 8.1 mph - N/A   Overcast
2:15 PM 59.0 °F 53.6 °F 82% 29.91 in 10.0 mi SSW 10.4 mph - N/A   Overcast
2:35 PM 57.2 °F 51.8 °F 82% 29.92 in 10.0 mi SW 10.4 mph - N/A   Overcast
2:55 PM 60.8 °F 53.6 °F 77% 29.92 in 10.0 mi SW 13.8 mph - N/A   Mostly Cloudy
3:15 PM 59.0 °F 51.8 °F 77% 29.93 in 10.0 mi WSW 10.4 mph - N/A   Overcast
3:35 PM 59.0 °F 51.8 °F 77% 29.93 in 10.0 mi West 16.1 mph - N/A   Overcast
3:55 PM 59.0 °F 51.8 °F 77% 29.92 in 10.0 mi West 10.4 mph - N/A   Overcast
4:15 PM 60.8 °F 53.6 °F 77% 29.92 in 10.0 mi West 11.5 mph - N/A   Mostly Cloudy
4:35 PM 57.2 °F 51.8 °F 82% 29.92 in 10.0 mi West 13.8 mph 20.7 mph N/A   Overcast
4:55 PM 57.2 °F 51.8 °F 82% 29.91 in 9.0 mi West 13.8 mph - N/A   Overcast
5:15 PM 55.4 °F 51.8 °F 88% 29.90 in 5.0 mi West 10.4 mph - N/A   Overcast
5:35 PM 57.2 °F 53.6 °F 88% 29.90 in 10.0 mi WSW 11.5 mph - N/A   Overcast
5:55 PM 57.2 °F 51.8 °F 82% 29.91 in 10.0 mi WSW 11.5 mph - N/A   Overcast
6:15 PM 57.2 °F 51.8 °F 82% 29.92 in 10.0 mi West 11.5 mph - N/A   Overcast
6:35 PM 57.2 °F 51.8 °F 82% 29.92 in 10.0 mi West 12.7 mph - N/A   Overcast
6:55 PM 55.4 °F 51.8 °F 88% 29.92 in 10.0 mi West 9.2 mph - N/A   Overcast
7:15 PM 55.4 °F 51.8 °F 88% 29.92 in 10.0 mi West 9.2 mph - N/A   Overcast
7:35 PM 55.4 °F 51.8 °F 88% 29.92 in 10.0 mi West 8.1 mph - N/A   Overcast
7:55 PM 55.4 °F 51.8 °F 88% 29.92 in 10.0 mi WSW 10.4 mph - N/A   Overcast
8:15 PM 55.4 °F 51.8 °F 88% 29.92 in 10.0 mi West 9.2 mph - N/A   Overcast
8:35 PM 55.4 °F 51.8 °F 88% 29.92 in 9.0 mi West 9.2 mph - N/A   Overcast
8:55 PM 55.4 °F 51.8 °F 88% 29.93 in 9.0 mi West 8.1 mph - N/A   Overcast
9:15 PM 55.4 °F 51.8 °F 88% 29.94 in 8.0 mi WSW 10.4 mph - N/A   Overcast
9:35 PM 55.4 °F 51.8 °F 88% 29.94 in 5.0 mi WSW 6.9 mph - N/A   Overcast
9:55 PM 55.4 °F 51.8 °F 88% 29.95 in 3.0 mi WSW 6.9 mph - N/A   Overcast
10:15 PM 55.4 °F 51.8 °F 88% 29.96 in 4.0 mi SW 5.8 mph - N/A   Overcast
10:35 PM 55.4 °F 51.8 °F 88% 29.96 in 6.0 mi SSW 5.8 mph - N/A   Mostly Cloudy
10:55 PM 55.4 °F 51.8 °F 88% 29.96 in 7.0 mi SW 4.6 mph - N/A   Mostly Cloudy
11:15 PM 55.4 °F 51.8 °F 88% 29.96 in 7.0 mi WSW 5.8 mph - N/A   Scattered Clouds
11:35 PM 55.4 °F 51.8 °F 88% 29.96 in 7.0 mi SSW 4.6 mph - N/A   Scattered Clouds
11:55 PM 55.4 °F 51.8 °F 88% 29.96 in 7.0 mi SW 3.5 mph - N/A   Mostly Cloudy